Regional Weather Roundup
Issued by NWS Mt. Holly, NJ

Home | Current Version | Previous Version | Text Only | Print | Product List | Glossary On
Versions: 1 2 3 4 5 6 7 8 9 10 11 12 13 14 15 16 17 18 19 20 21 22 23 24 25 26 27
000
ASUS41 KPHI 190012
RWRPHI

REGIONAL WEATHER ROUNDUP
NATIONAL WEATHER SERVICE MOUNT HOLLY NJ
800 PM EDT WED OCT 18 2017

NOTE:  "FAIR" INDICATES FEW OR NO CLOUDS BELOW 12,000 FEET WITH NO
SIGNIFICANT WEATHER AND/OR OBSTRUCTIONS TO VISIBILITY.

 * = STATION DOES NOT REPORT PRECIPITATION (E.G. RAIN, SNOW, ETC.)
        OR FOG.

NJZ015>026-190100-
SOUTHERN NEW JERSEY

CITY           SKY/WX    TMP DP  RH WIND       PRES   REMARKS
POMONA         CLEAR     58  48  69 SW5       30.31R
6HR MIN TEMP:  58; 6HR MAX TEMP:  71;

WILDWOOD*      CLEAR     56  51  84 CALM      30.32S
MILLVILLE      CLEAR     54  51  90 CALM      30.31S
WRIGHTSTOWN    CLEAR     55  49  79 CALM      30.27R
MOUNT HOLLY    CLEAR     55  49  80 CALM      30.29R
TRENTON        CLEAR     62  47  57 SW3       30.28R
6HR MIN TEMP:  62; 6HR MAX TEMP:  72;


$$
NJZ001>014-190100-
NORTHERN NEW JERSEY

CITY           SKY/WX    TMP DP  RH WIND       PRES   REMARKS
SUSSEX         CLEAR     54  50  86 CALM      30.27R
ANDOVER*         N/A     53  49  86 S3        30.28R
MORRISTOWN     CLEAR     54  50  87 CALM      30.28R
NEWARK         CLEAR     66  47  50 S7        30.27R
TETERBORO      CLEAR     63  51  65 S3        30.26R
CALDWELL       CLEAR     58  50  75 CALM      30.28R
SOMERVILLE     CLEAR     54  49  83 CALM      30.26R
ALLAIRE*       CLEAR     60  50  69 S7        30.30R
TOMS RIVER*      N/A     51  48  89 S3        30.30S

$$
PAZ043-044-047-054-055-060>062-066>071-190100-
EASTERN PENNSYLVANIA

CITY           SKY/WX    TMP DP  RH WIND       PRES   REMARKS
PHILADELPHIA   CLEAR     64  46  52 SW8       30.30R
6HR MIN TEMP:  64; 6HR MAX TEMP:  72;

NORTH PHILA    CLEAR     63  46  54 SW5       30.31R
BLUE BELL*     CLEAR     52  48  87 CALM      30.31R
DOYLESTOWN     CLEAR     56  46  69 S3        30.28R
QUAKERTOWN*    CLEAR     54  48  82 CALM      30.30R
PERKASIE*      FAIR      52  50  93 CALM      30.30S
POTTSTOWN      CLEAR     54  46  74 CALM      30.31R
LANCASTER      CLEAR     59  49  69 E3        30.29R
COATESVILLE    CLEAR     57  45  62 CALM      30.31S
READING        CLEAR     58  49  72 S5        30.28R
6HR MIN TEMP:  58; 6HR MAX TEMP:  72;

ALLENTOWN      CLEAR     58  45  62 S3        30.28R
6HR MIN TEMP:  56; 6HR MAX TEMP:  73;

MOUNT POCONO   CLEAR     52  45  77 W5        30.29R
6HR MIN TEMP:  51; 6HR MAX TEMP:  66;

HAZLETON       CLEAR     46  32  57 CALM      30.32S
LEHIGHTON      FAIR      50  46  87 CALM      30.29R
WILKES BARRE   CLEAR     57  44  62 S3        30.28R

$$
DEZALL-MDZ008-012-015-019-020-190100-
DELAWARE AND EASTERN MARYLAND

CITY           SKY/WX    TMP DP  RH WIND       PRES   REMARKS
WILMINGTON     CLEAR     61  45  55 SW5       30.31R
6HR MIN TEMP:  61; 6HR MAX TEMP:  71;

DOVER          CLEAR     59  46  62 SW5       30.30R
GEORGETOWN     CLEAR     52  47  83 S3        30.33R
6HR MIN TEMP:  52; 6HR MAX TEMP:  71;

EASTON         CLEAR     57  45  62 S7        30.35S
ABERDEEN       CLEAR     50  48  92 CALM      30.31R
PATUXENT       PTCLDY    57  45  64 S6        30.31S
OCEAN CITY     CLEAR     51  44  77 CALM      30.34R
WALLOPS ISLAND CLEAR     52  47  83 CALM      30.33S
CAMBRIDGE      CLEAR     54  46  76 CALM      30.32S
SALISBURY      CLEAR     52  49  89 E3        30.32S

$$
PAZ001-021-NYZ056-072-MDZ011-DCZ001-190100-
OTHER NEARBY LOCATIONS

CITY           SKY/WX    TMP DP  RH WIND       PRES   REMARKS
HARRISBURG     PTCLDY    62  48  60 SW10      30.27R
STATE COLLEGE  CLEAR     57  43  58 S7        30.27R
WILLIAMSPORT   CLEAR     57  49  74 N3        30.25R
BINGHAMTON     CLEAR     58  44  60 S6        30.25S
NEW YORK CITY  CLEAR     64  50  60 SW3       30.30R
BALTIMORE      PTCLDY    53  47  79 S3        30.30R
WASHINGTON DC  PTCLDY    61  48  62 S7        30.31R

$$




USA.gov is the U.S. government's official web portal to all federal, state and local government web resources and services.